Theta_e
328 316 318 315 300 308 305 311 319 318 320 328 330 328 327 327 318 308 340 349 353 355 358 361 364 364 363 363 361 360 362 362 362 360 361 361 362 362 362 361 360 359 357 356 356 357 357 356 356
319 317 309 305 296 294 303 316 314 317 324 331 329 327 327 324 322 336 338 349 353 356 357 359 364 364 364 362 362 362 362 362 361 360 360 361 361 361 362 362 362 361 357 356 356 355 355 354 353
321 316 303 299 295 297 306 314 315 318 326 327 325 328 327 330 327 331 344 350 351 352 357 360 364 364 364 362 361 362 362 361 360 359 359 359 360 359 359 359 359 359 357 357 356 356 358 357 356
310 306 304 295 294 299 312 315 321 314 320 324 330 326 333 339 330 343 348 348 348 352 357 362 363 363 363 363 362 362 361 361 360 358 358 357 357 357 357 356 356 356 355 355 356 357 357 356 356
310 301 295 293 295 298 311 313 310 311 313 328 332 326 326 330 343 345 346 346 347 352 357 360 362 363 363 361 361 361 361 360 359 358 357 356 356 356 356 357 358 357 355 354 353 355 355 354 352
301 300 292 291 296 305 306 308 310 312 314 326 327 326 325 331 335 341 343 342 352 352 356 358 362 362 362 361 361 360 360 359 358 358 357 356 356 357 358 358 357 356 354 353 352 351 349 347 346
297 296 294 296 298 302 306 308 308 309 321 325 331 324 326 327 325 336 340 347 351 350 352 355 356 358 361 361 360 360 359 358 358 357 356 355 356 357 359 358 356 353 351 349 349 347 346 345 345
301 298 295 295 296 298 305 306 307 314 323 333 335 323 320 325 327 330 336 349 347 347 349 350 352 354 355 356 361 360 359 358 358 357 356 355 355 357 358 357 356 355 351 349 347 347 346 346 346
303 295 292 295 299 301 306 305 313 332 328 330 330 330 329 328 327 325 327 343 342 344 344 345 348 349 351 352 356 360 358 358 358 357 356 352 344 346 349 354 356 356 352 350 349 348 347 348 349
299 293 296 301 301 300 303 305 307 325 327 325 325 330 335 335 322 322 321 334 336 336 339 342 343 344 343 350 351 351 352 352 351 350 349 345 342 340 344 348 356 356 354 352 352 351 350 350 339
301 296 301 303 306 304 304 304 308 318 318 326 324 329 336 333 325 322 322 325 335 336 336 338 339 340 339 344 350 347 347 348 348 346 346 343 343 343 344 343 346 343 350 342 344 344 344 339 335
298 304 303 304 305 303 302 304 306 314 319 327 330 332 327 333 330 325 325 325 328 336 336 337 337 337 337 346 344 344 345 345 345 345 346 342 340 342 341 339 338 338 336 336 336 335 335 334 333
301 302 305 305 303 301 304 303 303 308 325 324 323 322 328 333 336 335 331 334 334 334 334 336 338 337 336 344 342 342 343 344 345 345 347 346 346 342 340 340 337 337 336 334 333 335 334 335 335
303 303 303 302 301 304 301 302 302 306 325 324 321 320 329 334 333 336 340 336 334 335 338 336 338 338 340 344 344 341 341 344 344 345 346 348 345 342 342 338 342 338 339 339 335 338 337 335 338
304 299 302 302 302 300 304 301 302 306 312 314 317 327 333 333 334 335 337 340 341 337 335 335 340 341 340 346 350 343 342 344 343 345 346 347 346 345 344 339 337 341 341 340 340 342 343 340 340
299 296 292 300 303 304 302 294 304 307 308 308 315 330 329 329 328 329 331 333 336 338 342 345 343 342 339 347 350 349 350 348 347 346 348 347 346 345 345 340 340 340 337 339 340 339 338 339 339
296 292 294 299 304 303 300 297 306 308 309 313 326 326 326 325 325 325 327 329 331 333 338 344 336 341 336 349 351 349 348 348 350 348 348 348 347 346 345 341 339 340 338 334 338 339 337 337 341
295 295 298 297 300 302 298 300 304 307 309 323 323 322 322 322 321 323 324 326 328 330 333 337 328 326 328 329 350 348 346 346 347 347 348 349 348 346 343 344 341 339 340 334 336 335 345 341 339
300 298 297 301 305 301 299 300 304 306 321 320 320 319 319 318 320 321 321 324 324 326 329 329 333 328 325 326 347 346 345 343 346 347 348 348 348 346 345 342 342 342 337 336 335 337 343 337 338
300 297 297 302 304 301 299 299 302 310 317 318 317 316 315 315 317 317 318 320 321 322 324 326 328 331 334 338 349 348 347 348 348 349 349 350 348 347 348 342 340 339 337 345 344 343 338 336 334
299 298 298 298 301 300 297 296 299 314 318 318 316 315 315 314 313 313 313 316 318 319 320 322 323 325 328 332 336 342 347 347 346 345 347 348 348 350 348 345 339 340 344 345 343 339 335 332 331
295 302 302 301 297 289 297 287 294 310 312 313 312 312 312 312 313 312 311 313 313 314 319 320 321 322 324 326 327 329 328 328 332 336 337 342 348 342 336 346 345 346 343 341 336 342 337 334 329
300 303 300 299 294 290 293 288 291 308 306 308 310 312 311 311 312 310 312 313 312 312 314 318 317 319 321 322 323 323 322 324 328 330 331 332 335 338 339 339 336 335 333 323 326 323 324 336 333
304 300 299 296 291 285 294 291 290 300 306 308 310 311 312 312 313 313 313 315 314 313 313 314 316 318 320 321 322 322 321 322 322 322 324 329 331 331 333 338 337 336 335 332 327 326 325 327 334
299 294 286 284 285 286 296 293 296 306 310 309 308 310 310 312 312 310 309 311 312 312 314 315 315 318 320 318 319 322 323 323 322 323 323 323 324 328 330 332 333 333 333 330 330 328 327 327 332
296 293 286 280 284 288 296 294 298 309 311 311 312 310 311 309 310 310 310 310 311 313 312 313 312 312 312 314 316 316 317 322 323 322 323 324 325 326 327 329 329 331 334 333 330 329 328 330 336
296 290 295 290 291 286 289 299 304 308 309 310 310 310 308 309 309 309 310 309 309 309 309 310 309 309 308 309 310 310 312 313 313 317 319 320 323 325 326 325 325 326 325 330 334 331 331 335 337
298 300 290 289 283 282 289 293 295 302 303 308 309 308 309 310 309 308 309 309 308 309 308 307 307 307 308 308 309 309 309 311 313 312 312 312 314 316 319 320 322 323 324 328 326 325 327 327 331
295 293 295 292 291 284 283 288 303 302 303 303 303 310 309 309 309 309 309 311 308 307 307 306 306 306 306 308 308 309 310 311 311 311 312 313 313 313 313 316 317 318 321 325 324 324 324 324 326
300 296 295 287 286 289 290 289 304 304 304 304 304 307 312 311 310 310 310 311 310 308 307 305 305 305 307 307 307 309 309 310 310 310 313 312 313 313 314 315 316 316 316 316 320 322 324 323 323
Wind_Speed
7 8 4 2 5 6 4 8 5 9 4 9 10 12 7 5 4 6 10 20 22 15 15 17 19 18 18 17 16 16 15 14 12 12 11 11 11 11 11 10 10 11 12 11 10 10 9 8 7
4 6 2 1 4 1 6 7 9 7 12 19 12 8 7 10 9 15 11 17 21 16 13 15 20 18 18 17 17 15 14 14 13 11 11 10 9 9 9 8 9 10 10 10 9 9 8 7 4
3 5 3 4 4 6 6 7 15 12 9 12 7 6 7 7 10 5 19 20 20 15 13 15 20 19 18 17 16 15 14 13 12 12 10 10 8 7 7 7 7 7 8 8 8 7 6 4 2
3 4 5 1 10 11 9 10 17 5 6 12 14 7 2 1 6 15 21 19 17 15 15 18 19 19 18 18 17 15 14 12 11 11 10 9 9 7 7 6 5 5 5 6 6 5 5 4 3
1 2 2 4 10 4 7 9 4 1 9 17 16 7 5 6 26 25 21 19 18 12 13 15 20 19 17 18 18 16 15 12 10 10 9 8 8 7 7 6 5 5 5 5 4 3 3 4 4
4 3 4 5 9 5 4 4 3 6 6 17 17 9 4 10 22 18 20 19 19 16 11 13 19 19 19 17 16 15 15 14 12 10 9 8 8 7 6 6 6 6 5 5 5 5 5 5 6
4 1 8 8 8 4 5 3 5 4 13 10 10 8 6 7 10 17 19 19 19 18 13 11 12 15 18 17 16 15 14 14 13 11 10 9 9 8 8 7 6 6 6 5 6 6 6 7 8
2 2 8 6 1 2 2 2 0 11 7 6 7 4 7 9 9 9 16 18 19 16 14 11 10 10 10 11 16 15 14 13 13 12 11 10 10 9 8 8 8 7 7 7 7 8 9 10 12
4 5 7 7 12 6 8 9 14 13 15 11 8 6 7 7 11 8 11 17 16 14 14 11 10 9 9 8 12 15 17 16 14 13 13 10 5 6 8 8 10 9 8 8 9 10 10 11 12
5 3 8 3 5 7 10 11 7 12 16 10 12 17 15 10 5 8 7 16 17 15 16 15 12 11 10 10 8 6 8 7 7 7 8 6 7 6 9 10 12 11 10 10 10 10 11 10 5
8 7 7 2 8 9 10 11 7 13 5 13 24 21 10 5 9 10 10 14 18 19 14 17 16 14 13 11 9 5 4 4 5 8 9 8 7 6 7 4 5 5 9 4 6 5 5 6 5
5 8 4 4 7 8 7 4 8 8 8 11 16 21 19 8 5 10 14 12 14 18 17 19 19 16 16 10 9 10 8 8 6 7 8 5 5 5 7 6 6 5 5 7 6 4 6 8 8
3 3 7 5 5 3 4 6 7 6 11 10 9 11 10 3 9 24 11 8 12 7 5 17 17 16 13 14 9 9 9 8 10 9 9 7 5 5 6 6 6 6 5 6 6 6 6 7 8
5 5 7 3 5 3 2 3 1 8 14 12 10 12 12 15 13 12 20 12 7 16 10 9 17 16 13 12 10 9 9 11 9 8 10 12 8 6 5 5 7 7 7 7 8 7 8 8 5
6 6 9 7 5 2 6 6 9 11 14 15 14 22 18 19 15 15 13 15 3 10 10 9 16 15 14 14 10 9 8 7 9 9 12 14 10 8 7 5 5 7 7 11 7 7 8 5 4
2 3 5 13 8 6 9 9 15 12 10 9 16 18 18 23 21 18 17 16 15 17 14 10 7 8 7 7 6 5 3 3 5 5 9 14 12 9 7 5 5 5 4 3 3 4 4 4 5
4 8 7 6 9 6 5 4 7 11 11 14 19 17 17 19 23 22 21 21 20 14 15 14 15 14 26 9 5 6 4 3 3 3 4 12 14 12 7 6 5 5 4 4 3 2 1 2 3
5 4 9 9 5 5 1 6 5 3 11 18 18 16 17 19 20 17 20 20 20 19 15 15 8 12 24 20 12 2 2 4 5 4 5 7 9 12 10 5 7 6 4 4 2 2 2 4 3
5 6 7 3 5 6 4 4 11 0 16 16 17 16 16 16 13 16 17 18 18 17 17 17 14 6 6 14 14 4 4 4 5 6 7 7 6 7 8 7 5 4 4 4 4 2 4 1 2
5 6 9 4 10 8 5 7 10 8 12 15 17 15 14 13 17 17 18 19 16 14 14 13 14 12 7 5 5 4 4 4 7 5 6 6 5 5 4 6 5 4 2 3 4 4 2 2 3
4 7 7 4 7 9 5 9 8 12 19 20 19 16 15 13 13 12 14 11 12 14 14 13 11 8 9 9 6 5 4 5 5 9 11 8 6 7 4 4 2 1 1 3 2 3 4 4 1
4 9 10 10 8 3 7 7 4 15 16 18 17 14 11 10 11 8 8 7 8 10 8 10 12 12 11 13 11 14 9 8 8 6 7 8 8 11 14 18 2 3 1 9 9 8 11 9 4
3 8 7 5 7 5 11 1 6 18 13 14 15 13 12 9 8 6 6 7 5 7 8 6 7 11 14 13 12 10 11 8 7 8 13 14 15 8 6 10 15 9 7 7 7 7 13 6 3
5 4 7 6 3 3 20 9 6 7 16 12 14 12 12 9 7 6 5 7 6 7 6 6 7 8 10 11 11 11 11 10 10 10 10 9 8 9 10 4 4 7 3 1 4 7 11 13 10
4 6 4 6 4 9 10 3 4 11 16 18 14 11 8 8 7 6 5 4 6 7 8 6 6 7 7 8 9 8 6 10 10 8 6 8 7 7 9 8 5 4 5 4 3 6 5 10 12
4 2 5 3 4 7 10 4 2 15 16 15 14 11 9 8 7 8 6 5 4 7 7 7 8 8 7 8 8 8 8 6 6 5 5 5 5 3 4 5 6 6 6 4 3 5 4 7 10
3 3 3 0 4 2 4 4 5 13 13 14 14 12 9 9 8 9 8 8 6 6 4 7 7 7 7 7 6 7 7 7 8 9 8 7 7 7 8 9 9 7 6 4 5 4 7 11 9
7 2 5 4 2 3 4 0 6 8 7 14 12 12 10 9 9 7 6 6 6 7 6 6 4 5 6 6 6 5 6 7 6 6 7 7 6 9 9 9 10 11 11 11 5 3 4 4 5
4 1 2 2 3 3 1 6 6 8 6 7 5 15 15 14 11 8 8 7 7 7 6 5 4 2 3 4 5 7 6 7 6 6 5 5 5 6 6 7 8 9 10 8 7 8 7 8 7
6 2 4 6 6 2 3 6 6 9 9 8 8 6 14 12 9 10 9 7 8 6 6 5 2 2 2 3 3 4 5 5 6 6 6 7 6 6 6 6 5 5 6 8 5 6 6 7 8
Wind_Direction
298 293 172 49 39 75 248 231 198 242 172 116 108 96 90 263 88 150 115 118 123 129 130 125 128 127 127 126 124 123 120 116 113 112 110 108 109 110 110 109 108 106 108 109 106 102 94 82 72
325 304 351 228 118 304 276 291 272 235 109 111 84 93 64 53 71 118 102 132 124 131 128 129 130 129 129 129 127 125 123 120 122 123 122 117 115 115 112 112 114 119 121 121 122 120 118 116 106
262 203 84 153 184 185 224 231 244 265 125 118 90 40 153 104 136 105 124 133 126 126 128 133 132 131 131 131 129 127 126 128 132 134 133 129 126 121 116 117 121 128 131 133 135 134 138 143 155
311 20 331 126 252 254 186 220 237 161 113 102 144 84 257 228 103 127 130 126 122 124 129 132 133 134 136 136 135 133 134 137 139 142 140 137 133 130 131 132 135 135 139 146 148 152 160 169 204
177 304 251 266 265 253 170 198 296 340 128 111 108 112 88 54 114 128 132 128 124 120 130 133 136 136 139 141 142 142 141 141 142 143 144 143 142 143 146 145 145 144 147 155 165 177 190 200 228
324 113 7 276 280 236 78 53 13 355 120 108 101 106 81 119 125 141 135 134 122 128 131 136 139 142 143 147 147 146 147 147 149 149 149 151 155 158 162 163 161 161 163 173 175 187 209 226 242
187 62 241 266 283 7 109 73 5 56 60 83 135 101 132 102 142 141 139 127 131 134 138 141 145 149 148 149 150 150 151 152 152 154 156 163 169 173 175 177 181 183 186 199 205 208 221 233 245
200 135 314 309 203 161 102 78 164 61 28 66 62 85 143 158 145 137 129 132 133 134 140 145 150 148 147 153 154 154 156 157 157 159 164 172 181 186 190 192 198 196 201 215 225 231 233 237 243
294 31 300 292 28 331 10 57 49 77 70 54 36 53 334 159 142 137 131 138 137 141 145 152 158 155 153 154 165 161 165 165 168 170 174 179 184 196 200 202 208 206 205 216 227 233 242 250 260
134 141 252 289 50 16 357 44 18 87 91 71 58 9 357 336 145 152 159 151 149 154 157 159 165 168 166 166 160 163 174 175 175 179 183 184 195 194 202 204 198 202 210 223 231 237 242 248 248
247 214 253 20 51 32 346 18 358 113 51 144 130 118 342 289 210 182 190 167 159 164 162 168 168 174 180 167 161 173 180 184 198 195 194 195 196 206 204 189 187 191 216 223 226 227 231 237 235
265 276 323 331 52 23 345 1 336 77 165 169 147 154 177 209 256 202 198 171 153 162 171 174 172 177 186 158 174 178 181 185 187 203 207 203 200 193 175 185 191 196 206 215 226 210 222 228 229
178 326 320 30 27 329 7 347 308 97 161 163 151 146 177 86 352 360 304 116 81 29 216 181 174 178 180 167 176 182 185 188 195 193 194 205 202 202 195 189 182 202 194 223 220 217 220 235 240
10 4 337 24 285 303 163 290 57 280 172 162 160 173 64 84 97 27 357 35 52 209 171 183 182 183 165 166 177 186 193 194 191 196 198 207 200 190 206 197 195 202 200 213 226 210 218 221 208
14 8 320 285 241 165 82 324 268 265 153 156 176 82 73 78 74 65 53 47 5 272 304 226 189 186 174 161 171 186 204 192 197 199 198 202 208 189 196 211 216 201 194 211 218 221 197 225 227
274 274 256 265 194 183 105 274 260 224 111 95 62 64 49 49 48 40 27 61 36 10 4 286 278 178 180 146 145 158 186 197 201 186 192 200 207 200 183 199 215 236 250 216 208 193 192 216 229
286 241 233 311 131 144 146 274 359 113 114 87 79 63 49 41 36 29 22 25 28 30 10 23 35 44 28 323 153 164 191 236 228 241 187 203 206 204 187 190 212 222 241 223 224 264 221 45 10
331 293 309 148 180 111 33 304 322 155 100 96 87 71 56 45 32 26 24 28 30 11 20 33 33 72 45 322 319 2 284 278 267 250 237 208 217 205 198 195 206 205 214 236 201 199 72 108 102
325 342 338 83 142 116 131 275 288 191 103 93 84 73 61 48 32 27 24 36 31 24 18 13 30 8 106 221 253 212 222 234 245 240 250 241 208 209 202 211 206 193 194 207 210 153 145 163 135
345 325 304 5 20 58 17 290 284 73 98 92 88 77 67 47 35 23 16 30 35 29 21 22 22 18 7 319 274 291 262 242 230 224 234 244 249 248 208 200 209 191 194 222 185 158 166 146 155
4 36 7 18 4 347 353 293 259 99 101 94 83 80 68 60 50 26 16 22 31 32 25 20 27 31 25 11 351 357 355 341 360 357 341 320 261 206 198 166 157 267 127 206 17 6 288 227 165
74 12 9 358 15 283 63 285 333 133 113 97 93 85 78 70 58 42 10 15 38 34 34 28 19 29 30 31 34 42 35 18 1 360 332 337 341 47 349 339 183 127 152 50 38 20 349 322 279
316 32 342 310 296 331 276 290 281 135 111 101 99 101 102 87 93 74 18 355 51 58 36 25 21 30 30 42 49 49 43 33 20 8 20 13 14 11 100 15 349 52 79 105 76 41 33 345 287
281 308 298 276 185 295 260 175 308 173 132 110 104 104 111 118 113 121 87 19 19 27 48 34 24 34 37 34 32 43 33 35 35 30 23 15 20 28 20 35 34 320 250 165 100 50 53 36 324
45 25 342 349 9 234 330 316 157 87 114 117 116 112 109 109 104 91 76 71 33 22 22 32 32 39 28 32 35 34 6 26 40 30 18 31 26 7 1 352 338 315 313 273 176 161 201 146 247
323 170 151 261 323 308 330 99 160 104 109 113 122 122 124 129 142 148 160 133 85 50 27 31 32 33 26 22 23 16 14 18 14 38 49 34 19 348 336 322 316 317 295 236 219 221 250 237 238
338 346 194 214 278 333 232 66 76 125 129 130 136 140 151 157 182 175 156 131 128 98 51 47 34 26 24 22 23 15 10 25 25 23 24 17 11 3 353 2 348 327 336 24 160 212 231 242 251
169 214 16 349 219 280 314 355 182 151 132 153 152 155 165 175 180 161 143 159 166 138 107 76 45 43 20 19 12 15 12 14 21 21 19 17 8 6 360 0 356 353 6 357 1 8 270 296 281
36 353 21 123 122 177 300 291 122 125 132 133 161 171 175 182 183 168 181 174 128 125 129 133 93 71 14 6 4 7 356 0 5 11 6 1 353 358 358 351 353 359 353 1 354 342 8 9 350
75 39 108 121 286 323 165 268 146 158 168 177 220 205 186 182 170 175 180 162 139 166 145 132 180 106 22 353 11 2 351 354 358 352 348 358 355 345 330 342 350 347 345 342 1 355 9 12 5